Location: Caltech
(34.1382°N, 118.1253°W)
Time: 07:46:38
(UTC-07:00)

Uribyol 2 - Visible Passes

Search period start: 29 July 2014 00:00
Search period end: 08 August 2014 00:00
Orbit: 783 x 798 km, 98.7° (Epoch: 29 July)

Date Brightness Start Highest point End Pass type
(mag) Time Alt. Az. Time Alt. Az. Time Alt. Az.
29 Jul ? 02:42:17 10° NNE 02:46:31 47° ENE 02:46:31 47° ENE visible
29 Jul ? 04:23:11 10° NNW 04:26:19 16° WNW 04:27:15 16° WNW visible
30 Jul ? 02:13:35 10° NE 02:16:44 24° ENE 02:16:44 24° ENE visible
30 Jul ? 03:52:45 10° N 03:57:15 31° WNW 03:57:28 31° WNW visible
31 Jul ? 01:46:06 10° ENE 01:46:57 12° ENE 01:46:57 12° ENE visible
31 Jul ? 03:22:57 10° N 03:27:40 59° NW 03:27:40 59° NW visible
01 Aug ? 02:53:35 10° NNE 02:57:53 57° NE 02:57:53 57° NE visible
01 Aug ? 04:35:26 10° NW 04:37:34 13° WNW 04:38:37 12° WNW visible
02 Aug ? 02:24:39 10° NE 02:28:05 30° ENE 02:28:05 30° ENE visible
02 Aug ? 04:04:28 10° NNW 04:08:33 24° WNW 04:08:49 24° WNW visible
03 Aug ? 01:56:29 10° NE 01:58:18 15° ENE 01:58:18 15° ENE visible
03 Aug ? 03:34:29 10° N 03:39:02 46° WNW 03:39:02 46° WNW visible
04 Aug ? 03:04:57 10° NNE 03:09:14 62° NNE 03:09:14 62° NNE visible
05 Aug ? 02:35:50 10° NNE 02:39:26 36° ENE 02:39:26 36° ENE visible
05 Aug ? 04:16:18 10° NNW 04:19:51 19° WNW 04:20:10 19° WNW visible
06 Aug ? 02:07:17 10° NE 02:09:39 19° ENE 02:09:39 19° ENE visible
06 Aug ? 03:46:03 10° N 03:50:22 36° WNW 03:50:22 36° WNW visible
07 Aug ? 03:16:22 10° N 03:20:35 57° NNW 03:20:35 57° NNW visible
